Year,Month,Day,Hour,Minute,Value (Times are PST for barometer in hPa)
2017,04,07,00,00,993.26
2017,04,07,00,01,993.19
2017,04,07,00,02,993.16
2017,04,07,00,03,993.09
2017,04,07,00,04,992.99
2017,04,07,00,05,992.99
2017,04,07,00,06,992.96
2017,04,07,00,07,992.99
2017,04,07,00,08,992.99
2017,04,07,00,09,992.99
2017,04,07,00,10,993.03
2017,04,07,00,11,992.99
2017,04,07,00,12,992.92
2017,04,07,00,13,992.89
2017,04,07,00,14,992.89
2017,04,07,00,15,992.79
2017,04,07,00,16,992.72
2017,04,07,00,17,992.69
2017,04,07,00,18,992.62
2017,04,07,00,19,992.69
2017,04,07,00,20,992.55
2017,04,07,00,21,992.52
2017,04,07,00,22,992.55
2017,04,07,00,23,992.52
2017,04,07,00,24,992.45
2017,04,07,00,25,992.42
2017,04,07,00,26,992.38
2017,04,07,00,27,992.42
2017,04,07,00,28,992.45
2017,04,07,00,29,992.45
2017,04,07,00,30,992.38
2017,04,07,00,31,992.31
2017,04,07,00,32,992.25
2017,04,07,00,33,992.14
2017,04,07,00,34,992.08
2017,04,07,00,35,992.01
2017,04,07,00,36,992.01
2017,04,07,00,37,991.98
2017,04,07,00,38,991.94
2017,04,07,00,39,991.94
2017,04,07,00,40,991.81
2017,04,07,00,41,991.77
2017,04,07,00,42,991.67
2017,04,07,00,43,991.60
2017,04,07,00,44,991.60
2017,04,07,00,45,991.60
2017,04,07,00,46,991.50
2017,04,07,00,47,991.43
2017,04,07,00,48,991.47
2017,04,07,00,49,991.43
2017,04,07,00,50,991.47
2017,04,07,00,51,991.43
2017,04,07,00,52,991.43
2017,04,07,00,53,991.47
2017,04,07,00,54,991.40
2017,04,07,00,55,991.37
2017,04,07,00,56,991.40
2017,04,07,00,57,991.30
2017,04,07,00,58,991.33
2017,04,07,00,59,991.26
2017,04,07,01,00,991.30
2017,04,07,01,01,991.30
2017,04,07,01,02,991.26
2017,04,07,01,03,991.16
2017,04,07,01,04,991.16
2017,04,07,01,05,991.13
2017,04,07,01,06,991.06
2017,04,07,01,07,991.06
2017,04,07,01,08,990.99
2017,04,07,01,09,990.96
2017,04,07,01,10,990.82
2017,04,07,01,11,990.79
2017,04,07,01,12,990.72
2017,04,07,01,13,990.69
2017,04,07,01,14,990.65
2017,04,07,01,15,990.62
2017,04,07,01,16,990.59
2017,04,07,01,17,990.52
2017,04,07,01,18,990.52
2017,04,07,01,19,990.52
2017,04,07,01,20,990.38
2017,04,07,01,21,990.38
2017,04,07,01,22,990.32
2017,04,07,01,23,990.32
2017,04,07,01,24,990.25
2017,04,07,01,25,990.25
2017,04,07,01,26,990.25
2017,04,07,01,27,990.18
2017,04,07,01,28,990.18
2017,04,07,01,29,990.08
2017,04,07,01,30,990.04
2017,04,07,01,31,990.01
2017,04,07,01,32,989.98
2017,04,07,01,33,989.94
2017,04,07,01,34,989.94
2017,04,07,01,35,989.91
2017,04,07,01,36,989.84
2017,04,07,01,37,989.84
2017,04,07,01,38,989.84
2017,04,07,01,39,989.84
2017,04,07,01,40,989.77
2017,04,07,01,41,989.74
2017,04,07,01,42,989.77
2017,04,07,01,43,989.77
2017,04,07,01,44,989.77
2017,04,07,01,45,989.81
2017,04,07,01,46,989.81
2017,04,07,01,47,989.74
2017,04,07,01,48,989.84
2017,04,07,01,49,989.81
2017,04,07,01,50,989.81
2017,04,07,01,51,989.81
2017,04,07,01,52,989.74
2017,04,07,01,53,989.74
2017,04,07,01,54,989.60
2017,04,07,01,55,989.57
2017,04,07,01,56,989.47
2017,04,07,01,57,989.44
2017,04,07,01,58,989.33
2017,04,07,01,59,989.33
2017,04,07,02,00,989.33
2017,04,07,02,01,989.33
2017,04,07,02,02,989.27
2017,04,07,02,03,989.16
2017,04,07,02,04,989.13
2017,04,07,02,05,989.16
2017,04,07,02,06,989.03
2017,04,07,02,07,988.96
2017,04,07,02,08,988.93
2017,04,07,02,09,989.06
2017,04,07,02,10,988.86
2017,04,07,02,11,988.79
2017,04,07,02,12,988.69
2017,04,07,02,13,988.52
2017,04,07,02,14,988.49
2017,04,07,02,15,988.55
2017,04,07,02,16,988.49
2017,04,07,02,17,988.42
2017,04,07,02,18,988.42
2017,04,07,02,19,988.39
2017,04,07,02,20,988.39
2017,04,07,02,21,988.28
2017,04,07,02,22,988.25
2017,04,07,02,23,988.22
2017,04,07,02,24,988.11
2017,04,07,02,25,988.11
2017,04,07,02,26,988.08
2017,04,07,02,27,988.01
2017,04,07,02,28,987.98
2017,04,07,02,29,987.95
2017,04,07,02,30,987.91
2017,04,07,02,31,987.91
2017,04,07,02,32,987.81
2017,04,07,02,33,987.81
2017,04,07,02,34,987.84
2017,04,07,02,35,987.84
2017,04,07,02,36,987.78
2017,04,07,02,37,987.78
2017,04,07,02,38,987.84
2017,04,07,02,39,987.91
2017,04,07,02,40,987.95
2017,04,07,02,41,987.91
2017,04,07,02,42,987.91
2017,04,07,02,43,987.95
2017,04,07,02,44,987.95
2017,04,07,02,45,987.91
2017,04,07,02,46,987.98
2017,04,07,02,47,987.95
2017,04,07,02,48,987.91
2017,04,07,02,49,987.88
2017,04,07,02,50,987.88
2017,04,07,02,51,987.88
2017,04,07,02,52,987.88
2017,04,07,02,53,987.81
2017,04,07,02,54,987.78
2017,04,07,02,55,987.78
2017,04,07,02,56,987.71
2017,04,07,02,57,987.74
2017,04,07,02,58,987.61
2017,04,07,02,59,987.67
2017,04,07,03,00,987.71
2017,04,07,03,01,987.71
2017,04,07,03,02,987.78
2017,04,07,03,03,987.78
2017,04,07,03,04,987.81
2017,04,07,03,05,987.78
2017,04,07,03,06,987.81
2017,04,07,03,07,987.81
2017,04,07,03,08,987.88
2017,04,07,03,09,987.91
2017,04,07,03,10,987.91
2017,04,07,03,11,987.95
2017,04,07,03,12,987.98
2017,04,07,03,13,987.91
2017,04,07,03,14,987.95
2017,04,07,03,15,987.91
2017,04,07,03,16,987.95
2017,04,07,03,17,987.84
2017,04,07,03,18,987.78
2017,04,07,03,19,987.74
2017,04,07,03,20,987.67
2017,04,07,03,21,987.71
2017,04,07,03,22,987.64
2017,04,07,03,23,987.64
2017,04,07,03,24,987.61
2017,04,07,03,25,987.61
2017,04,07,03,26,987.57
2017,04,07,03,27,987.54
2017,04,07,03,28,987.61
2017,04,07,03,29,987.51
2017,04,07,03,30,987.47
2017,04,07,03,31,987.51
2017,04,07,03,32,987.44
2017,04,07,03,33,987.37
2017,04,07,03,34,987.37
2017,04,07,03,35,987.27
2017,04,07,03,36,987.27
2017,04,07,03,37,987.30
2017,04,07,03,38,987.30
2017,04,07,03,39,987.23
2017,04,07,03,40,987.13
2017,04,07,03,41,987.13
2017,04,07,03,42,987.10
2017,04,07,03,43,987.06
2017,04,07,03,44,987.06
2017,04,07,03,45,987.10
2017,04,07,03,46,987.06
2017,04,07,03,47,987.10
2017,04,07,03,48,987.06
2017,04,07,03,49,987.00
2017,04,07,03,50,986.93
2017,04,07,03,51,986.96
2017,04,07,03,52,987.00
2017,04,07,03,53,986.93
2017,04,07,03,54,986.90
2017,04,07,03,55,986.86
2017,04,07,03,56,986.79
2017,04,07,03,57,986.79
2017,04,07,03,58,986.73
2017,04,07,03,59,986.69
2017,04,07,04,00,986.69
2017,04,07,04,01,986.59
2017,04,07,04,02,986.52
2017,04,07,04,03,986.52
2017,04,07,04,04,986.49
2017,04,07,04,05,986.46
2017,04,07,04,06,986.46
2017,04,07,04,07,986.46
2017,04,07,04,08,986.49
2017,04,07,04,09,986.52
2017,04,07,04,10,986.52
2017,04,07,04,11,986.52
2017,04,07,04,12,986.52
2017,04,07,04,13,986.56
2017,04,07,04,14,986.59
2017,04,07,04,15,986.59
2017,04,07,04,16,986.56
2017,04,07,04,17,986.56
2017,04,07,04,18,986.59
2017,04,07,04,19,986.56
2017,04,07,04,20,986.52
2017,04,07,04,21,986.59
2017,04,07,04,22,986.52
2017,04,07,04,23,986.52
2017,04,07,04,24,986.59
2017,04,07,04,25,986.52
2017,04,07,04,26,986.49
2017,04,07,04,27,986.56
2017,04,07,04,28,986.59
2017,04,07,04,29,986.59
2017,04,07,04,30,986.62
2017,04,07,04,31,986.59
2017,04,07,04,32,986.66
2017,04,07,04,33,986.69
2017,04,07,04,34,986.73
2017,04,07,04,35,986.69
2017,04,07,04,36,986.62
2017,04,07,04,37,986.62
2017,04,07,04,38,986.66
2017,04,07,04,39,986.66
2017,04,07,04,40,986.69
2017,04,07,04,41,986.79
2017,04,07,04,42,986.83
2017,04,07,04,43,987.03
2017,04,07,04,44,987.23
2017,04,07,04,45,987.46
2017,04,07,04,46,987.70
2017,04,07,04,47,987.88
2017,04,07,04,48,987.95
2017,04,07,04,49,987.98
2017,04,07,04,50,987.98
2017,04,07,04,51,987.91
2017,04,07,04,52,987.91
2017,04,07,04,53,987.91
2017,04,07,04,54,987.95
2017,04,07,04,55,987.95
2017,04,07,04,56,987.91
2017,04,07,04,57,987.88
2017,04,07,04,58,987.88
2017,04,07,04,59,987.81
2017,04,07,05,00,987.74
2017,04,07,05,01,987.64
2017,04,07,05,02,987.54
2017,04,07,05,03,987.41
2017,04,07,05,04,987.37
2017,04,07,05,05,987.34
2017,04,07,05,06,987.30
2017,04,07,05,07,987.30
2017,04,07,05,08,987.23
2017,04,07,05,09,987.23
2017,04,07,05,10,987.23
2017,04,07,05,11,987.23
2017,04,07,05,12,987.17
2017,04,07,05,13,987.20
2017,04,07,05,14,987.23
2017,04,07,05,15,987.27
2017,04,07,05,16,987.23
2017,04,07,05,17,987.20
2017,04,07,05,18,987.20
2017,04,07,05,19,987.17
2017,04,07,05,20,987.17
2017,04,07,05,21,987.10
2017,04,07,05,22,987.06
2017,04,07,05,23,987.03
2017,04,07,05,24,987.03
2017,04,07,05,25,986.93
2017,04,07,05,26,986.90
2017,04,07,05,27,986.83
2017,04,07,05,28,986.79
2017,04,07,05,29,986.76
2017,04,07,05,30,986.73
2017,04,07,05,31,986.76
2017,04,07,05,32,986.76
2017,04,07,05,33,986.76
2017,04,07,05,34,986.79
2017,04,07,05,35,986.86
2017,04,07,05,36,986.90
2017,04,07,05,37,986.83
2017,04,07,05,38,986.83
2017,04,07,05,39,986.73
2017,04,07,05,40,986.69
2017,04,07,05,41,986.66
2017,04,07,05,42,986.59
2017,04,07,05,43,986.56
2017,04,07,05,44,986.49
2017,04,07,05,45,986.52
2017,04,07,05,46,986.52
2017,04,07,05,47,986.49
2017,04,07,05,48,986.49
2017,04,07,05,49,986.52
2017,04,07,05,50,986.66
2017,04,07,05,51,986.73
2017,04,07,05,52,986.76
2017,04,07,05,53,986.73
2017,04,07,05,54,986.73
2017,04,07,05,55,986.73
2017,04,07,05,56,986.62
2017,04,07,05,57,986.69
2017,04,07,05,58,986.76
2017,04,07,05,59,986.83
2017,04,07,06,00,986.86
2017,04,07,06,01,986.83
2017,04,07,06,02,986.83
2017,04,07,06,03,986.79
2017,04,07,06,04,986.69
2017,04,07,06,05,986.73
2017,04,07,06,06,986.69
2017,04,07,06,07,986.73
2017,04,07,06,08,986.76
2017,04,07,06,09,986.73
2017,04,07,06,10,986.76
2017,04,07,06,11,986.79
2017,04,07,06,12,986.79
2017,04,07,06,13,986.83
2017,04,07,06,14,986.83
2017,04,07,06,15,986.90
2017,04,07,06,16,986.83
2017,04,07,06,17,986.76
2017,04,07,06,18,986.73
2017,04,07,06,19,986.69
2017,04,07,06,20,986.66
2017,04,07,06,21,986.62
2017,04,07,06,22,986.62
2017,04,07,06,23,986.62
2017,04,07,06,24,986.62
2017,04,07,06,25,986.66
2017,04,07,06,26,986.69
2017,04,07,06,27,986.69
2017,04,07,06,28,986.66
2017,04,07,06,29,986.66
2017,04,07,06,30,986.66
2017,04,07,06,31,986.62
2017,04,07,06,32,986.62
2017,04,07,06,33,986.62
2017,04,07,06,34,986.62
2017,04,07,06,35,986.66
2017,04,07,06,36,986.66
2017,04,07,06,37,986.56
2017,04,07,06,38,986.52
2017,04,07,06,39,986.49
2017,04,07,06,40,986.49
2017,04,07,06,41,986.56
2017,04,07,06,42,986.56
2017,04,07,06,43,986.52
2017,04,07,06,44,986.56
2017,04,07,06,45,986.52
2017,04,07,06,46,986.52
2017,04,07,06,47,986.59
2017,04,07,06,48,986.56
2017,04,07,06,49,986.59
2017,04,07,06,50,986.62
2017,04,07,06,51,986.59
2017,04,07,06,52,986.56
2017,04,07,06,53,986.59
2017,04,07,06,54,986.59
2017,04,07,06,55,986.59
2017,04,07,06,56,986.52
2017,04,07,06,57,986.42
2017,04,07,06,58,986.46
2017,04,07,06,59,986.42
2017,04,07,07,00,986.42
2017,04,07,07,01,986.32
2017,04,07,07,02,986.25
2017,04,07,07,03,986.29
2017,04,07,07,04,986.25
2017,04,07,07,05,986.22
2017,04,07,07,06,986.18
2017,04,07,07,07,986.15
2017,04,07,07,08,986.12
2017,04,07,07,09,986.15
2017,04,07,07,10,986.15
2017,04,07,07,11,986.18
2017,04,07,07,12,986.22
2017,04,07,07,13,986.18
2017,04,07,07,14,986.22
2017,04,07,07,15,986.32
2017,04,07,07,16,986.29
2017,04,07,07,17,986.25
2017,04,07,07,18,986.29
2017,04,07,07,19,986.29
2017,04,07,07,20,986.32
2017,04,07,07,21,986.35
2017,04,07,07,22,986.39
2017,04,07,07,23,986.42
2017,04,07,07,24,986.46
2017,04,07,07,25,986.49
2017,04,07,07,26,986.52
2017,04,07,07,27,986.52
2017,04,07,07,28,986.59
2017,04,07,07,29,986.59
2017,04,07,07,30,986.59
2017,04,07,07,31,986.56
2017,04,07,07,32,986.59
2017,04,07,07,33,986.59
2017,04,07,07,34,986.56
2017,04,07,07,35,986.46
2017,04,07,07,36,986.42
2017,04,07,07,37,986.35
2017,04,07,07,38,986.32
2017,04,07,07,39,986.32
2017,04,07,07,40,986.32
2017,04,07,07,41,986.35
2017,04,07,07,42,986.42
2017,04,07,07,43,986.46
2017,04,07,07,44,986.52
2017,04,07,07,45,986.52
2017,04,07,07,46,986.56
2017,04,07,07,47,986.62
2017,04,07,07,48,986.73
2017,04,07,07,49,986.73
2017,04,07,07,50,986.66
2017,04,07,07,51,986.56
2017,04,07,07,52,986.49
2017,04,07,07,53,986.35
2017,04,07,07,54,986.35
2017,04,07,07,55,986.32
2017,04,07,07,56,986.39
2017,04,07,07,57,986.32
2017,04,07,07,58,986.32
2017,04,07,07,59,986.25
2017,04,07,08,00,986.22
2017,04,07,08,01,986.18
2017,04,07,08,02,986.15
2017,04,07,08,03,986.08
2017,04,07,08,04,986.05
2017,04,07,08,05,986.08
2017,04,07,08,06,986.08
2017,04,07,08,07,986.15
2017,04,07,08,08,986.18
2017,04,07,08,09,986.22
2017,04,07,08,10,986.29
2017,04,07,08,11,986.29
2017,04,07,08,12,986.25
2017,04,07,08,13,986.32
2017,04,07,08,14,986.39
2017,04,07,08,15,986.42
2017,04,07,08,16,986.35
2017,04,07,08,17,986.35
2017,04,07,08,18,986.39
2017,04,07,08,19,986.39
2017,04,07,08,20,986.42
2017,04,07,08,21,986.32
2017,04,07,08,22,986.35
2017,04,07,08,23,986.32
2017,04,07,08,24,986.35
2017,04,07,08,25,986.32
2017,04,07,08,26,986.32
2017,04,07,08,27,986.32
2017,04,07,08,28,986.29
2017,04,07,08,29,986.29
2017,04,07,08,30,986.32
2017,04,07,08,31,986.32
2017,04,07,08,32,986.35
2017,04,07,08,33,986.32
2017,04,07,08,34,986.25
2017,04,07,08,35,986.22
2017,04,07,08,36,986.18
2017,04,07,08,37,986.29
2017,04,07,08,38,986.29
2017,04,07,08,39,986.25
2017,04,07,08,40,986.18
2017,04,07,08,41,986.22
2017,04,07,08,42,986.18
2017,04,07,08,43,986.05
2017,04,07,08,44,986.08
2017,04,07,08,45,986.08
2017,04,07,08,46,985.98
2017,04,07,08,47,985.91
2017,04,07,08,48,985.88
2017,04,07,08,49,985.85
2017,04,07,08,50,985.78
2017,04,07,08,51,985.85
2017,04,07,08,52,985.81
2017,04,07,08,53,985.78
2017,04,07,08,54,985.78
2017,04,07,08,55,985.81
2017,04,07,08,56,985.78
2017,04,07,08,57,985.74
2017,04,07,08,58,985.74
2017,04,07,08,59,985.71
2017,04,07,09,00,985.68
2017,04,07,09,01,985.68
2017,04,07,09,02,985.71
2017,04,07,09,03,985.71
2017,04,07,09,04,985.68
2017,04,07,09,05,985.68
2017,04,07,09,06,985.68
2017,04,07,09,07,985.57
2017,04,07,09,08,985.61
2017,04,07,09,09,985.68
2017,04,07,09,10,985.71
2017,04,07,09,11,985.68
2017,04,07,09,12,985.71
2017,04,07,09,13,985.64
2017,04,07,09,14,985.68
2017,04,07,09,15,985.71
2017,04,07,09,16,985.74
2017,04,07,09,17,985.61
2017,04,07,09,18,985.71
2017,04,07,09,19,985.78
2017,04,07,09,20,985.68
2017,04,07,09,21,985.80
2017,04,07,09,22,985.88
2017,04,07,09,23,985.85
2017,04,07,09,24,985.81
2017,04,07,09,25,985.74
2017,04,07,09,26,985.68
2017,04,07,09,27,985.71
2017,04,07,09,28,985.71
2017,04,07,09,29,985.68
2017,04,07,09,30,985.74
2017,04,07,09,31,985.68
2017,04,07,09,32,985.71
2017,04,07,09,33,985.74
2017,04,07,09,34,985.74
2017,04,07,09,35,985.68
2017,04,07,09,36,985.57
2017,04,07,09,37,985.71
2017,04,07,09,38,985.81
2017,04,07,09,39,985.78
2017,04,07,09,40,985.78
2017,04,07,09,41,985.71
2017,04,07,09,42,985.74
2017,04,07,09,43,985.64
2017,04,07,09,44,985.51
2017,04,07,09,45,985.57
2017,04,07,09,46,985.61
2017,04,07,09,47,985.61
2017,04,07,09,48,985.71
2017,04,07,09,49,985.64
2017,04,07,09,50,985.64
2017,04,07,09,51,985.64
2017,04,07,09,52,985.61
2017,04,07,09,53,985.61
2017,04,07,09,54,985.57
2017,04,07,09,55,985.57
2017,04,07,09,56,985.64
2017,04,07,09,57,985.64
2017,04,07,09,58,985.64
2017,04,07,09,59,985.71
2017,04,07,10,00,985.51
2017,04,07,10,01,985.54
2017,04,07,10,02,985.47
2017,04,07,10,03,985.41
2017,04,07,10,04,985.51
2017,04,07,10,05,985.51
2017,04,07,10,06,985.47
2017,04,07,10,07,985.47
2017,04,07,10,08,985.47
2017,04,07,10,09,985.47
2017,04,07,10,10,985.47
2017,04,07,10,11,985.47
2017,04,07,10,12,985.44
2017,04,07,10,13,985.51
2017,04,07,10,14,985.41
2017,04,07,10,15,985.41
2017,04,07,10,16,985.47
2017,04,07,10,17,985.47
2017,04,07,10,18,985.51
2017,04,07,10,19,985.47
2017,04,07,10,20,985.51
2017,04,07,10,21,985.51
2017,04,07,10,22,985.47
2017,04,07,10,23,985.54
2017,04,07,10,24,985.51
2017,04,07,10,25,985.57
2017,04,07,10,26,985.54
2017,04,07,10,27,985.57
2017,04,07,10,28,985.45
2017,04,07,10,29,985.47
2017,04,07,10,30,985.41
2017,04,07,10,31,985.34
2017,04,07,10,32,985.30
2017,04,07,10,33,985.34
2017,04,07,10,34,985.37
2017,04,07,10,35,985.34
2017,04,07,10,36,985.37
2017,04,07,10,37,985.37
2017,04,07,10,38,985.27
2017,04,07,10,39,985.37
2017,04,07,10,40,985.30
2017,04,07,10,41,985.34
2017,04,07,10,42,985.34
2017,04,07,10,43,985.30
2017,04,07,10,44,985.17
2017,04,07,10,45,985.13
2017,04,07,10,46,985.17
2017,04,07,10,47,985.10
2017,04,07,10,48,985.10
2017,04,07,10,49,985.07
2017,04,07,10,50,985.17
2017,04,07,10,51,985.10
2017,04,07,10,52,985.13
2017,04,07,10,53,985.17
2017,04,07,10,54,985.10
2017,04,07,10,55,985.00
2017,04,07,10,56,985.03
2017,04,07,10,57,985.13
2017,04,07,10,58,985.20
2017,04,07,10,59,985.27
2017,04,07,11,00,985.27
2017,04,07,11,01,985.17
2017,04,07,11,02,985.17
2017,04,07,11,03,985.27
2017,04,07,11,04,985.41
2017,04,07,11,05,985.34
2017,04,07,11,06,985.27
2017,04,07,11,07,985.24
2017,04,07,11,08,985.27
2017,04,07,11,09,985.41
2017,04,07,11,10,985.30
2017,04,07,11,11,985.41
2017,04,07,11,12,985.44
2017,04,07,11,13,985.28
2017,04,07,11,14,985.27
2017,04,07,11,15,985.30
2017,04,07,11,16,985.41
2017,04,07,11,17,985.34
2017,04,07,11,18,985.51
2017,04,07,11,19,985.44
2017,04,07,11,20,985.44
2017,04,07,11,21,985.54
2017,04,07,11,22,985.44
2017,04,07,11,23,985.57
2017,04,07,11,24,985.57
2017,04,07,11,25,985.57
2017,04,07,11,26,985.51
2017,04,07,11,27,985.47
2017,04,07,11,28,985.61
2017,04,07,11,29,985.68
2017,04,07,11,30,985.57
2017,04,07,11,31,985.57
2017,04,07,11,32,985.68
2017,04,07,11,33,985.61
2017,04,07,11,34,985.81
2017,04,07,11,35,985.61
2017,04,07,11,36,985.64
2017,04,07,11,37,985.78
2017,04,07,11,38,985.74
2017,04,07,11,39,985.81
2017,04,07,11,40,985.88
2017,04,07,11,41,985.88
2017,04,07,11,42,985.91
2017,04,07,11,43,985.91
2017,04,07,11,44,985.95
2017,04,07,11,45,985.95
2017,04,07,11,46,985.98
2017,04,07,11,47,986.08
2017,04,07,11,48,985.98
2017,04,07,11,49,986.08
2017,04,07,11,50,986.12
2017,04,07,11,51,986.12
2017,04,07,11,52,986.02
2017,04,07,11,53,986.15
2017,04,07,11,54,986.18
2017,04,07,11,55,986.12
2017,04,07,11,56,986.15
2017,04,07,11,57,986.05
2017,04,07,11,58,986.02
2017,04,07,11,59,985.91
2017,04,07,12,00,986.12
2017,04,07,12,01,985.98
2017,04,07,12,02,986.02
2017,04,07,12,03,985.98
2017,04,07,12,04,985.95
2017,04,07,12,05,985.88
2017,04,07,12,06,985.85
2017,04,07,12,07,985.95
2017,04,07,12,08,986.05
2017,04,07,12,09,986.12
2017,04,07,12,10,986.15
2017,04,07,12,11,986.31
2017,04,07,12,12,986.18
2017,04,07,12,13,986.15
2017,04,07,12,14,986.35
2017,04,07,12,15,986.32
2017,04,07,12,16,986.25
2017,04,07,12,17,986.22
2017,04,07,12,18,986.12
2017,04,07,12,19,986.08
2017,04,07,12,20,986.28
2017,04,07,12,21,986.32
2017,04,07,12,22,986.32
2017,04,07,12,23,986.32
2017,04,07,12,24,986.35
2017,04,07,12,25,986.42
2017,04,07,12,26,986.42
2017,04,07,12,27,986.42
2017,04,07,12,28,986.42
2017,04,07,12,29,986.49
2017,04,07,12,30,986.49
2017,04,07,12,31,986.49
2017,04,07,12,32,986.49
2017,04,07,12,33,986.49
2017,04,07,12,34,986.49
2017,04,07,12,35,986.49
2017,04,07,12,36,986.39
2017,04,07,12,37,986.39
2017,04,07,12,38,986.46
2017,04,07,12,39,986.52
2017,04,07,12,40,986.49
2017,04,07,12,41,986.46
2017,04,07,12,42,986.49
2017,04,07,12,43,986.52
2017,04,07,12,44,986.66
2017,04,07,12,45,986.73
2017,04,07,12,46,986.69
2017,04,07,12,47,986.83
2017,04,07,12,48,986.67
2017,04,07,12,49,986.66
2017,04,07,12,50,986.66
2017,04,07,12,51,986.69
2017,04,07,12,52,986.66
2017,04,07,12,53,986.66
2017,04,07,12,54,986.69
2017,04,07,12,55,986.69
2017,04,07,12,56,986.79
2017,04,07,12,57,986.83
2017,04,07,12,58,986.73
2017,04,07,12,59,986.79
2017,04,07,13,00,986.79
2017,04,07,13,01,986.83
2017,04,07,13,02,986.83
2017,04,07,13,03,986.83
2017,04,07,13,04,986.76
2017,04,07,13,05,986.83
2017,04,07,13,06,986.79
2017,04,07,13,07,986.90
2017,04,07,13,08,986.93
2017,04,07,13,09,986.93
2017,04,07,13,10,987.00
2017,04,07,13,11,987.00
2017,04,07,13,12,987.06
2017,04,07,13,13,987.22
2017,04,07,13,14,987.03
2017,04,07,13,15,987.03
2017,04,07,13,16,987.16
2017,04,07,13,17,987.36
2017,04,07,13,18,987.27
2017,04,07,13,19,987.27
2017,04,07,13,20,987.23
2017,04,07,13,21,987.23
2017,04,07,13,22,987.23
2017,04,07,13,23,987.17
2017,04,07,13,24,987.23
2017,04,07,13,25,987.13
2017,04,07,13,26,987.17
2017,04,07,13,27,987.23
2017,04,07,13,28,987.23
2017,04,07,13,29,987.30
2017,04,07,13,30,987.47
2017,04,07,13,31,987.44
2017,04,07,13,32,987.44
2017,04,07,13,33,987.51
2017,04,07,13,34,987.54
2017,04,07,13,35,987.44
2017,04,07,13,36,987.44
2017,04,07,13,37,987.44
2017,04,07,13,38,987.47
2017,04,07,13,39,987.44
2017,04,07,13,40,987.47
2017,04,07,13,41,987.37
2017,04,07,13,42,987.27
2017,04,07,13,43,987.17
2017,04,07,13,44,987.20
2017,04,07,13,45,987.36
2017,04,07,13,46,987.56
2017,04,07,13,47,987.57
2017,04,07,13,48,987.54
2017,04,07,13,49,987.51
2017,04,07,13,50,987.51
2017,04,07,13,51,987.57
2017,04,07,13,52,987.57
2017,04,07,13,53,987.64
2017,04,07,13,54,987.64
2017,04,07,13,55,987.71
2017,04,07,13,56,987.71
2017,04,07,13,57,987.67
2017,04,07,13,58,987.67
2017,04,07,13,59,987.67
2017,04,07,14,00,987.78
2017,04,07,14,01,987.71
2017,04,07,14,02,987.84
2017,04,07,14,03,987.81
2017,04,07,14,04,987.84
2017,04,07,14,05,987.97
2017,04,07,14,06,988.01
2017,04,07,14,07,988.08
2017,04,07,14,08,988.11
2017,04,07,14,09,988.08
2017,04,07,14,10,988.11
2017,04,07,14,11,988.05
2017,04,07,14,12,988.11
2017,04,07,14,13,988.15
2017,04,07,14,14,988.31
2017,04,07,14,15,988.28
2017,04,07,14,16,988.32
2017,04,07,14,17,988.22
2017,04,07,14,18,988.35
2017,04,07,14,19,988.48
2017,04,07,14,20,988.52
2017,04,07,14,21,988.45
2017,04,07,14,22,988.32
2017,04,07,14,23,988.28
2017,04,07,14,24,988.39
2017,04,07,14,25,988.52
2017,04,07,14,26,988.49
2017,04,07,14,27,988.65
2017,04,07,14,28,988.59
2017,04,07,14,29,988.52
2017,04,07,14,30,988.59
2017,04,07,14,31,988.59
2017,04,07,14,32,988.62
2017,04,07,14,33,988.59
2017,04,07,14,34,988.52
2017,04,07,14,35,988.55
2017,04,07,14,36,988.66
2017,04,07,14,37,988.76
2017,04,07,14,38,988.83
2017,04,07,14,39,988.89
2017,04,07,14,40,988.86
2017,04,07,14,41,988.79
2017,04,07,14,42,988.83
2017,04,07,14,43,988.76
2017,04,07,14,44,988.76
2017,04,07,14,45,988.72
2017,04,07,14,46,988.76
2017,04,07,14,47,988.69
2017,04,07,14,48,988.88
2017,04,07,14,49,988.93
2017,04,07,14,50,989.05
2017,04,07,14,51,989.03
2017,04,07,14,52,989.10
2017,04,07,14,53,989.03
2017,04,07,14,54,989.00
2017,04,07,14,55,989.03
2017,04,07,14,56,989.03
2017,04,07,14,57,989.03
2017,04,07,14,58,989.00
2017,04,07,14,59,988.93
2017,04,07,15,00,988.96
2017,04,07,15,01,989.09
2017,04,07,15,02,989.23
2017,04,07,15,03,989.33
2017,04,07,15,04,989.33
2017,04,07,15,05,989.30
2017,04,07,15,06,989.27
2017,04,07,15,07,989.30
2017,04,07,15,08,989.30
2017,04,07,15,09,989.30
2017,04,07,15,10,989.16
2017,04,07,15,11,989.27
2017,04,07,15,12,989.14
2017,04,07,15,13,989.27
2017,04,07,15,14,989.16
2017,04,07,15,15,989.20
2017,04,07,15,16,989.07
2017,04,07,15,17,989.06
2017,04,07,15,18,989.13
2017,04,07,15,19,989.23
2017,04,07,15,20,989.27
2017,04,07,15,21,989.33
2017,04,07,15,22,989.37
2017,04,07,15,23,989.40
2017,04,07,15,24,989.30
2017,04,07,15,25,989.30
2017,04,07,15,26,989.30
2017,04,07,15,27,989.27
2017,04,07,15,28,989.23
2017,04,07,15,29,989.27
2017,04,07,15,30,989.56
2017,04,07,15,31,989.45
2017,04,07,15,32,989.44
2017,04,07,15,33,989.57
2017,04,07,15,34,989.47
2017,04,07,15,35,989.54
2017,04,07,15,36,989.57
2017,04,07,15,37,989.67
2017,04,07,15,38,989.67
2017,04,07,15,39,989.60
2017,04,07,15,40,989.73
2017,04,07,15,41,989.64
2017,04,07,15,42,989.74
2017,04,07,15,43,989.71
2017,04,07,15,44,989.84
2017,04,07,15,45,989.77
2017,04,07,15,46,989.65
2017,04,07,15,47,989.64
2017,04,07,15,48,989.54
2017,04,07,15,49,989.66
2017,04,07,15,50,989.67
2017,04,07,15,51,989.67
2017,04,07,15,52,989.71
2017,04,07,15,53,989.51
2017,04,07,15,54,989.50
2017,04,07,15,55,989.54
2017,04,07,15,56,989.50
2017,04,07,15,57,989.54
2017,04,07,15,58,989.57
2017,04,07,15,59,989.54
2017,04,07,16,00,989.67
2017,04,07,16,01,989.67
2017,04,07,16,02,989.74
2017,04,07,16,03,989.74
2017,04,07,16,04,989.51
2017,04,07,16,05,989.60
2017,04,07,16,06,989.60
2017,04,07,16,07,989.67
2017,04,07,16,08,989.67
2017,04,07,16,09,989.71
2017,04,07,16,10,989.84
2017,04,07,16,11,989.81
2017,04,07,16,12,989.77
2017,04,07,16,13,989.81
2017,04,07,16,14,989.88
2017,04,07,16,15,989.77
2017,04,07,16,16,989.81
2017,04,07,16,17,989.74
2017,04,07,16,18,989.93
2017,04,07,16,19,989.91
2017,04,07,16,20,989.84
2017,04,07,16,21,989.77
2017,04,07,16,22,989.77
2017,04,07,16,23,989.77
2017,04,07,16,24,989.77
2017,04,07,16,25,989.77
2017,04,07,16,26,989.81
2017,04,07,16,27,989.88
2017,04,07,16,28,989.81
2017,04,07,16,29,989.93
2017,04,07,16,30,990.08
2017,04,07,16,31,990.04
2017,04,07,16,32,989.98
2017,04,07,16,33,989.88
2017,04,07,16,34,989.84
2017,04,07,16,35,989.91
2017,04,07,16,36,989.94